K7RAP Weather Reports


time (UTC)temp
C
wind
direction
speed
KPH
gust
KPH
rain 1hr
cm
rain 24hr
cm
rain mn
cm
humidity
%
barometer
mb
20260506153004 13 213 1.6 6.4 0.00 0.00 0.00 80 1019.3
20260506152004 13 213 1.6 6.4 0.00 0.00 0.00 80 1019.3
20260506151004 12 221 3.2 4.8 0.00 0.00 0.00 80 1019.0
20260506150004 12 229 1.6 4.8 0.00 0.00 0.00 82 1018.6
20260506145003 12 229 1.6 4.8 0.00 0.00 0.00 82 1018.6
20260506144003 12 236 1.6 4.8 0.00 0.00 0.00 82 1019.0
20260506143004 12 219 3.2 4.8 0.00 0.00 0.00 83 1019.0
20260506142004 12 219 3.2 4.8 0.00 0.00 0.00 83 1019.0
20260506141004 12 221 0.0 6.4 0.00 0.00 0.00 83 1019.3
20260506140004 12 223 0.0 6.4 0.00 0.00 0.00 84 1019.0
20260506135003 12 223 0.0 6.4 0.00 0.00 0.00 84 1019.0
20260506134003 12 232 1.6 3.2 0.00 0.00 0.00 84 1018.6
20260506133004 12 250 0.0 4.8 0.00 0.00 0.00 84 1018.3
20260506132003 12 250 0.0 4.8 0.00 0.00 0.00 84 1018.3
20260506131004 12 231 4.8 6.4 0.00 0.00 0.00 83 1018.6
20260506130006 12 227 1.6 4.8 0.00 0.00 0.00 84 1018.3
20260506125003 12 227 1.6 4.8 0.00 0.00 0.00 84 1018.3
20260506124003 12 327 0.0 3.2 0.00 0.00 0.00 83 1018.3
20260506123004 12 235 0.0 3.2 0.00 0.00 0.00 84 1017.9
20260506122004 12 235 0.0 3.2 0.00 0.00 0.00 84 1017.9
20260506121003 12 220 0.0 3.2 0.00 0.00 0.00 84 1017.9
20260506120005 12 200 1.6 4.8 0.00 0.00 0.00 84 1017.9
20260506115004 12 200 1.6 4.8 0.00 0.00 0.00 84 1017.9
20260506114004 12 245 0.0 3.2 0.00 0.00 0.00 83 1017.9
20260506112003 12 225 0.0 3.2 0.00 0.00 0.00 84 1017.9
20260506111003 12 198 3.2 3.2 0.00 0.00 0.00 84 1017.6
20260506110004 12 217 1.6 3.2 0.00 0.00 0.00 84 1017.6
20260506105003 12 217 1.6 3.2 0.00 0.00 0.00 84 1017.6
20260506104005 12 217 0.0 4.8 0.00 0.00 0.00 84 1017.6
20260506103004 12 203 3.2 6.4 0.00 0.00 0.00 84 1017.3
20260506102003 12 203 3.2 6.4 0.00 0.00 0.00 84 1017.3
20260506101003 12 219 0.0 3.2 0.00 0.00 0.00 83 1017.3
20260506100004 12 215 1.6 4.8 0.00 0.00 0.00 83 1017.3
20260506095003 12 215 1.6 4.8 0.00 0.00 0.00 83 1017.3
20260506094004 12 229 1.6 4.8 0.00 0.00 0.00 84 1016.9
20260506093004 12 142 1.6 3.2 0.00 0.00 0.00 84 1016.9
20260506092003 12 142 1.6 3.2 0.00 0.00 0.00 84 1016.9
20260506091003 12 223 0.0 1.6 0.00 0.00 0.00 84 1016.9
20260506090004 12 223 0.0 4.8 0.00 0.00 0.00 84 1016.9
20260506085003 12 223 0.0 4.8 0.00 0.00 0.00 84 1016.9
20260506084004 12 216 0.0 4.8 0.00 0.00 0.00 84 1016.9
20260506083004 12 232 0.0 4.8 0.00 0.00 0.00 84 1016.6
20260506082003 12 232 0.0 4.8 0.00 0.00 0.00 84 1016.6
20260506081003 12 232 0.0 6.4 0.00 0.00 0.00 84 1016.6
20260506073004 12 210 0.0 3.2 0.00 0.00 0.00 84 1016.3
20260506072004 12 210 0.0 3.2 0.00 0.00 0.00 84 1016.3
20260506071004 13 199 1.6 3.2 0.00 0.00 0.00 85 1016.3
20260506062003 12 230 0.0 3.2 0.00 0.00 0.00 84 1015.9
20260506061004 12 336 0.0 4.8 0.00 0.00 0.00 84 1015.9
20260506051003 12 231 1.6 3.2 0.00 0.00 0.00 84 1015.6
20260506045004 12 9 0.0 3.2 0.00 0.00 0.00 84 1015.6
20260506044003 12 203 0.0 1.6 0.00 0.00 0.00 84 1015.6
20260506043003 12 225 0.0 3.2 0.00 0.00 0.00 83 1015.2
20260506042003 12 225 0.0 3.2 0.00 0.00 0.00 83 1015.2
20260506041003 13 109 0.0 1.6 0.00 0.00 0.00 83 1014.9
20260506040004 13 188 0.0 1.6 0.00 0.00 0.00 81 1014.9
20260506035004 13 188 0.0 1.6 0.00 0.00 0.00 81 1014.9
20260506034004 13 190 1.6 3.2 0.00 0.00 0.00 80 1014.6
20260506033004 14 215 3.2 9.7 0.00 0.00 0.00 78 1014.6
20260506032004 14 215 3.2 9.7 0.00 0.00 0.00 78 1014.6
20260506031003 15 221 0.0 4.8 0.00 0.00 0.00 78 1014.2
20260506030004 15 232 1.6 4.8 0.00 0.00 0.00 77 1014.2
20260506025004 15 232 1.6 4.8 0.00 0.00 0.00 77 1014.2
20260506024004 16 239 4.8 11.3 0.00 0.00 0.00 75 1014.2
20260506023004 16 214 3.2 6.4 0.00 0.00 0.00 74 1014.2
20260506022003 16 214 3.2 6.4 0.00 0.00 0.00 74 1014.2
20260506021003 16 230 3.2 9.7 0.00 0.00 0.00 73 1014.2
20260506020004 17 171 3.2 9.7 0.00 0.00 0.00 73 1014.2
20260506015008 17 171 3.2 9.7 0.00 0.00 0.00 73 1014.2
20260506014003 17 228 3.2 9.7 0.00 0.00 0.00 72 1013.9
20260506013004 17 212 6.4 14.5 0.00 0.00 0.00 70 1013.9
20260506012003 17 212 6.4 14.5 0.00 0.00 0.00 70 1013.9
20260506011003 18 238 6.4 11.3 0.00 0.00 0.00 70 1013.9
20260506010004 18 232 11.3 11.3 0.00 0.00 0.00 69 1013.9
20260506005003 18 232 11.3 11.3 0.00 0.00 0.00 69 1013.9
20260506004004 18 219 6.4 14.5 0.00 0.00 0.00 68 1013.9
20260506003004 17 9 0.0 11.3 0.00 0.00 0.00 72 1014.2
20260506002004 17 9 0.0 11.3 0.00 0.00 0.00 72 1014.2
20260506001003 17 229 4.8 11.3 0.00 0.00 0.00 71 1014.2
20260506000004 17 232 8.0 14.5 0.00 0.00 0.00 71 1014.2
20260505235003 17 232 8.0 14.5 0.00 0.00 0.00 71 1014.2
20260505234004 17 213 3.2 11.3 0.00 0.00 0.00 71 1014.6
20260505233004 17 231 6.4 9.7 0.00 0.00 0.00 72 1014.6
20260505232003 17 231 6.4 9.7 0.00 0.00 0.00 72 1014.6
20260505231003 17 227 8.0 12.9 0.00 0.00 0.00 71 1014.6
20260505230005 17 227 6.4 11.3 0.00 0.00 0.00 71 1014.6
20260505225003 17 227 6.4 11.3 0.00 0.00 0.00 71 1014.6
20260505224004 17 217 4.8 12.9 0.00 0.00 0.00 73 1014.9
20260505223004 17 218 6.4 14.5 0.00 0.00 0.00 71 1014.9
20260505222003 17 218 6.4 14.5 0.00 0.00 0.00 71 1014.9
20260505221003 17 232 12.9 8.0 0.00 0.00 0.00 70 1015.2
20260505220004 17 220 3.2 6.4 0.00 0.00 0.00 70 1015.2
20260505215003 17 220 3.2 6.4 0.00 0.00 0.00 70 1015.2
20260505214003 17 190 4.8 8.0 0.00 0.00 0.00 72 1015.2
20260505213004 17 180 1.6 8.0 0.00 0.00 0.00 71 1015.2
20260505212004 17 180 1.6 8.0 0.00 0.00 0.00 71 1015.2
20260505185004 15 187 1.6 6.4 0.00 0.00 0.00 75 1015.6
20260505184003 15 77 0.0 4.8 0.00 0.00 0.00 77 1015.6
20260505183003 15 219 3.2 4.8 0.00 0.00 0.00 76 1015.6
20260505182004 15 219 3.2 4.8 0.00 0.00 0.00 76 1015.6
20260505181003 15 238 1.6 6.4 0.00 0.00 0.00 78 1015.6
20260505180004 13 247 0.0 6.4 0.00 0.00 0.00 78 1015.6
20260505175004 13 247 0.0 6.4 0.00 0.00 0.00 78 1015.6
20260505174004 15 198 4.8 11.3 0.00 0.00 0.00 76 1015.2
20260505173003 15 230 4.8 6.4 0.00 0.00 0.00 78 1015.2
20260505172003 15 230 4.8 6.4 0.00 0.00 0.00 78 1015.2
20260505171003 14 226 1.6 4.8 0.00 0.00 0.00 79 1015.2
20260505165004 13 226 0.0 6.4 0.00 0.00 0.00 80 1015.2
20260505164003 13 218 1.6 4.8 0.00 0.00 0.00 82 1014.9
20260505163003 13 238 1.6 6.4 0.00 0.00 0.00 83 1014.9
20260505162003 13 238 1.6 6.4 0.00 0.00 0.00 83 1014.9
20260505161003 13 221 1.6 4.8 0.00 0.00 0.00 84 1014.9